This demonstration page uses our WeatherBlox Daily Observations layout. Learn more.

Left ArrowRight Arrow

Hourly Observations for February 28, 2018

Temp ( °F °C ) Dew Point ( °F °C ) Humidity (%) Winds ( mph kmh ) Pressure ( in mb ) Visibility ( mi km ) Precip ( " mm )
12:53 am 00:53 Clear 27 -2.8 24 -4.4 89 89 NNE 9 15 29.86 1011 10 16 0.00 0.00
1:53 am 01:53 Clear 27 -2.8 24 -4.4 89 89 N 9 15 29.85 1011 9 14 0.00 0.00
2:53 am 02:53 Clear 25 -3.9 23 -5 92 92 NNE 7 11 29.84 1011 9 14 0.00 0.00
3:53 am 03:53 Clear 24 -4.4 22 -5.6 91 91 NNE 7 11 29.84 1011 9 14 0.00 0.00
4:53 am 04:53 Clear 24 -4.4 22 -5.6 91 91 N 9 15 29.84 1010 10 16 0.00 0.00
5:53 am 05:53 Clear 23 -5 21 -6.1 92 92 N 12 19 29.86 1011 9 14 0.00 0.00
6:53 am 06:53 Clear 24 -4.4 21 -6.1 88 88 N 12 19 29.88 1012 10 16 0.00 0.00
7:53 am 07:53 Sunny 25 -3.9 22 -5.6 88 88 NNE 9 15 29.87 1012 10 16 0.00 0.00
8:53 am 08:53 Sunny 29 -1.7 25 -3.9 85 85 NNE 13 20 29.90 1013 10 16 0.00 0.00
9:53 am 09:53 Sunny 34 1.1 28 -2.2 79 79 N 16 26 29.89 1012 10 16 0.00 0.00
10:53 am 10:53 Sunny 38 3.3 28 -2.2 68 68 N 20 31 29.89 1012 10 16 0.00 0.00
11:53 am 11:53 Sunny 41 5 28 -2.2 60 60 N 22 35 29.89 1012 10 16 0.00 0.00
12:53 pm 12:53 Sunny 43 6.1 29 -1.7 58 58 NNE 16 26 29.88 1012 10 16 0.00 0.00
1:53 pm 13:53 Sunny 45 7.2 29 -1.7 54 54 NNE 17 28 29.85 1011 10 16 0.00 0.00
2:53 pm 14:53 Sunny 45 7.2 28 -2.2 52 52 NNE 22 35 29.86 1011 10 16 0.00 0.00
3:53 pm 15:53 Sunny 45 7.2 25 -3.9 46 46 NNE 20 31 29.88 1012 10 16 0.00 0.00
4:53 pm 16:53 Sunny 42 5.6 26 -3.3 53 53 NNE 17 28 29.90 1013 10 16 0.00 0.00
5:53 pm 17:53 Sunny 38 3.3 23 -5 55 55 NNE 16 26 29.96 1015 10 16 0.00 0.00
6:53 pm 18:53 Clear 35 1.7 25 -3.9 67 67 N 13 20 29.99 1016 10 16 0.00 0.00
7:53 pm 19:53 Clear 34 1.1 25 -3.9 70 70 N 14 22 30.03 1017 10 16 0.00 0.00
8:53 pm 20:53 Clear 33 0.6 24 -4.4 70 70 N 18 30 30.05 1018 10 16 0.00 0.00
9:53 pm 21:53 Clear 31 -0.6 24 -4.4 76 76 N 14 22 30.07 1018 10 16 0.00 0.00
10:53 pm 22:53 Clear 29 -1.7 24 -4.4 82 82 N 12 19 30.08 1019 10 16 0.00 0.00
11:53 pm 23:53 Clear 28 -2.2 24 -4.4 85 85 N 15 24 30.09 1019 10 16 0.00 0.00

Powered by AerisWeather